STARLINK-11448, 63005

Orbit data source: Space-Track

STARLINK-11448, 63005 is a payload satellite owned by SpaceX/Seattle (US) in LEO that was launched on Sat, 15 Feb 2025 UTC via an FALCON 9 launch vehicle from the Air Force Eastern Test Range (AFETR). Payload-class satellites include a variety of spacecraft equipped with specific instruments for various scientific and technological missions. These include communications satellites like Starlink; space stations such as the ISS; scientific satellites like the Hubble; Earth observation satellites from companies like Planet Labs, Umbra, and HawkEye 360; GPS; miniature CubeSats for education and research; and military/defense satellites.

Loading next visibility...
Identifier
63005, 2025-032A
Orbit
LEO
Country
Flag of USUS
Related business
Manufacturer
SpaceX/Seattle
Mission
Operational Commercial Communications
Bus & Motor
STARLINK V2MD, Unknown motor
Mass
960 kg wet, ~910 kg dry
Launch date (UTC)
2025-02-15 (8 months ago)
Launch vehicle
FALCON 9
Launch site
Air Force Eastern Test Range (AFETR)
Object type
Payload
Rocket body
Debris
Shape & HBR
Box + 2 Pan, 18.1 m
Radar Cross Section
36.964 m², Large (>1 m²)

Expand to show TLE details & history
Last TLE update: 1 day ago

TLE from 1 day ago
0 STARLINK-11448
1 63005U 25032A   25301.28283064  .00114846  00000-0  88429-3 0  9998
2 63005  43.0014 273.0894 0001521 272.3097  87.7596 15.70891539 41409
Epoch: 2025-10-28T06:47Z
TLE epoch observation values (Epoch: 2025-10-28T06:47:16.567Z)
Latitude
-0.00005°
Longitude
134.39777°
Altitude
356.079 km
Speed
7.697 km/s
True Right ascension
18h 12m 21s
True Declination
0° 00' 00"
Sunlit
Object was in daylight at epoch
Visualization orbit readout
Latitude
Unknown
Longitude
Unknown
Altitude
Unknown
Speed
Unknown
Apparent Right ascension
Unknown
Apparent Declination
Unknown
Sunlit
N/A
Visualization observer readout
Local Sidereal Time
02:58:44
Azimuth
Unknown
Elevation
Unknown
Doppler factor
Unknown
Orbital elements
Apogee altitude
359.354 km
Perigee altitude
357.305 km
Semi-major axis
6,736.466 km
Eccentricity
0.00015
Inclination
43.0014°
RAAN
273.0894°
Arg. of periapsis
272.3097°
True anomaly
87.77702°
Mean anomaly
87.7596°
Eccentric anomaly
87.76831°
Mean motion
3.9255 °/min
Orbital period
91.71 mins
BSTAR
0.00088429
Loading maneuver chart data...
Computing Atmospheric mass density...
Loading historical data...
Loading historical data...
Loading historical data...
Loading historical data...
Loading historical data...
Loading historical data...
Loading historical data...

Documentation

Showing up to 5 results
|